This is the latest recevied weather packets stored in our database for station/object PA3FNT-13. If no packets are shown the sender has not sent any weather packets the latest 10 day(s).
| Time | Temp. | Humidity | Pressure | Rain* | Wind** | Luminosity | Snow |
|---|---|---|---|---|---|---|---|
| 1777630073 | 28.33° C | 19% | 1026.2 hPa | - | - | - | - |
| 1777629205 | 28.33° C | 19% | 1026.3 hPa | - | - | - | - |
| 1777629173 | 28.33° C | 19% | 1026.3 hPa | - | - | - | - |
| 1777628329 | 28.89° C | 18% | 1026.4 hPa | - | - | - | - |
| 1777628273 | 28.89° C | 18% | 1026.4 hPa | - | - | - | - |
| 1777627373 | 29.44° C | 19% | 1026.6 hPa | - | - | - | - |
| 1777626473 | 28.33° C | 20% | 1026.7 hPa | - | - | - | - |
| 1777625609 | 28.33° C | 20% | 1026.8 hPa | - | - | - | - |
| 1777625572 | 28.33° C | 20% | 1026.8 hPa | - | - | - | - |
| 1777624672 | 28.33° C | 20% | 1026.9 hPa | - | - | - | - |
| 1777623815 | 27.78° C | 21% | 1027.1 hPa | - | - | - | - |
| 1777623772 | 27.78° C | 21% | 1027.1 hPa | - | - | - | - |
| 1777622872 | 27.78° C | 21% | 1027.2 hPa | - | - | - | - |
| 1777621972 | 27.22° C | 21% | 1027.3 hPa | - | - | - | - |
| 1777621072 | 27.22° C | 22% | 1027.5 hPa | - | - | - | - |
| 1777620171 | 27.22° C | 23% | 1027.4 hPa | - | - | - | - |
| 1777619271 | 26.67° C | 23% | 1027.4 hPa | - | - | - | - |
| 1777618370 | 26.11° C | 23% | 1027.4 hPa | - | - | - | - |
| 1777617469 | 25.56° C | 24% | 1027.6 hPa | - | - | - | - |
| 1777616876 | 25.56° C | 23% | 1027.7 hPa | - | - | - | - |
| 1777615976 | 26.11° C | 24% | 1027.7 hPa | - | - | - | - |
| 1777615075 | 26.11° C | 23% | 1027.7 hPa | - | - | - | - |
| 1777614175 | 25.56° C | 23% | 1027.7 hPa | - | - | - | - |
| 1777613275 | 25.56° C | 24% | 1027.6 hPa | - | - | - | - |
| 1777612375 | 25.56° C | 23% | 1027.6 hPa | - | - | - | - |
* Rain since midnight (hover to see other rain measurements)
** Current wind speed in m/s (hover to see current wind gust speed)